Weather Roundup
Issued by NWS

Home | Current Version | Previous Version | Text Only | Print | Product List | Glossary On
Versions: 1 2 3 4 5 6 7 8 9 10 11 12 13 14 15 16 17 18 19 20 21 22 23 24 25 26 27 28 29 30 31 32 33 34 35 36 37 38 39 40 41 42 43 44 45 46 47 48 49 50
000
NZUS93 KARX 281759
HRRWXR

CURRENT HOURLY OBSERVATIONS ACROSS
MUCH OF THE UPPER MISSISSIPPI VALLEY
NATIONAL WEATHER SERVICE LA CROSSE WI
100 PM CDT TUE JUL 28 2015


...SOUTHEAST MINNESOTA...


CITY           SKY/WX    TMP DP  RH WIND       PRES   REMARKS
ROCHESTER      CLOUDY    76  72  87 SE17G25   29.86F
ROCHESTER/MAYO MOCLDY    75  73  92 SE15G24   29.85F
WINONA         CLOUDY    77  70  78 S5        29.87R
AUSTIN         CLOUDY    79  73  83 SE7       29.85F
ALBERT LEA     CLOUDY    79  73  83 S12       29.85F
DODGE CENTER   CLOUDY    75  72  88 S13       29.86S
PRESTON        CLOUDY    74  70  85 S10       29.88F
OWATONNA       CLOUDY    79  72  78 SE15      29.85S
FARIBAULT      CLOUDY    79  72  78 S12G18    29.85F
$$

...ELSEWHERE IN MINNESOTA...


CITY           SKY/WX    TMP DP  RH WIND       PRES   REMARKS
MINNEAPOLIS    CLOUDY    78  68  71 S15       29.83F
INTNL FALLS    CLOUDY    73  71  93 SE10G18   29.67F
DULUTH         CLOUDY    79  68  69 SW15G31   29.79S
RED WING       CLOUDY    81  70  69 S7G16     29.82F
REDWOOD FALLS  PTSUNNY   81  72  74 S13       29.81F
MANKATO        CLOUDY    79  70  73 S9        29.84F
WORTHINGTON    CLOUDY    75  68  78 SW15G21   29.87S
FAIRMONT       PTSUNNY   79  66  65 S10       29.85F
$$

...SOUTHWEST WISCONSIN...


CITY           SKY/WX    TMP DP  RH WIND       PRES   REMARKS
LA CROSSE      CLOUDY    75  71  87 SW8       29.86S
PRAIRIE DU CHI NOT AVBL
BOSCOBEL       RAIN      75  72  90 SE7       29.89F FOG
LONE ROCK      NOT AVBL
PLATTEVILLE    CLOUDY    77  73  88 S12       29.99S
FORT MC COY    NOT AVBL
VIROQUA        CLOUDY    70  70 100 SE15G23   29.88F
WIS DELLS      CLOUDY    82  67  59 S8        29.96F
$$

...ELSEWHERE IN WISCONSIN...


CITY           SKY/WX    TMP DP  RH WIND       PRES   REMARKS
MILWAUKEE      MOSUNNY   84  66  54 SE12      29.98F
MADISON        PTSUNNY   83  69  62 S10       29.96F
GREEN BAY      CLOUDY    84  65  52 S10       29.95F
EAU CLAIRE     CLOUDY    78  69  73 SW14      29.85R
BLACK RVR FLS  FAIR      73  73  99 S7        29.82F
MEDFORD        NOT AVBL
WAUSAU         CLOUDY    81  66  60 S14       29.89F
WIS RAPIDS     CLOUDY    77  66  68 S16G23    29.88F
MARSHFIELD     CLOUDY    77  68  73 S13G26    29.88F
RICE LAKE      CLOUDY    77  68  73 S14       29.87R
$$

...NORTHEAST IOWA...


CITY           SKY/WX    TMP DP  RH WIND       PRES   REMARKS
DECORAH        CLOUDY    73  72  94 SE9       29.88S
MASON CITY     CLOUDY    76  73  91 SE15      29.87F
CHARLES CITY   CLOUDY    73  73 100 SE12G20   29.89F
OELWEIN        CLOUDY    72  70  94 S17G24    29.89F
$$

...ELSEWHERE IN IOWA...


CITY           SKY/WX    TMP DP  RH WIND       PRES   REMARKS
DES MOINES     CLOUDY    83  73  72 SE22G28   29.86F
IOWA CITY      CLOUDY    71  70  96 E5        29.97F
FORT DODGE     CLOUDY    77  70  78 SE6       29.88R
$$

...NORTHERN ILLINOIS...


CITY           SKY/WX    TMP DP  RH WIND       PRES   REMARKS
CHICAGO-OHARE  PTSUNNY   87  69  54 SW5       29.98S HX  91
CHICAGO-MIDWAY PTSUNNY   90  70  51 S7        29.97F HX  95
MOLINE         CLOUDY    83  75  77 SE7       29.97F HX  90
ROCKFORD       CLOUDY    84  71  65 SW9       30.01R
PEORIA         PTSUNNY   89  77  67 S3        29.98R HX 101
$$

NOTE: "FAIR" INDICATES FEW OR NO CLOUDS BELOW 12,000 FEET WITH NO
SIGNIFICANT WEATHER AND/OR OBSTRUCTIONS TO VISIBILITY. WIND
SPEEDS ARE IN MILES-PER-HOUR.



USA.gov is the U.S. government's official web portal to all federal, state and local government web resources and services.